Voltar ao catálogo

SKYSAT C9

AtivoCiênciaSSO
NORAD 42989·PAYLOAD·🇺🇸 United States

Lançado Oct 31, 2017 de Vandenberg Space Force Base

Loading…

Próximas Passagens (próximas 24 horas)

TLE

AtualizadoSource: CelesTrak SupGP

Época: Sep 14, 2026, 20:49 UTC

1 42989C 17068C   26257.86789352  .00009921  00000+0  22149-3 0  2572
2 42989  97.4552  37.5798 0008242 164.2608  81.6328 15.43535012    16

Acompanhe SKYSAT C9 em tempo real com AllMySat

Download on the App Store